Terminal Aerodrome Forecast
Issued by NWS

Home | Current Version | Previous Version | Text Only | Print | Product List | Glossary On
Versions: 1 2 3 4 5 6 7 8 9 10 11 12 13 14 15 16 17
000
FTUS45 KRIW 212015 AAA
TAFCPR
TAF AMD
KCPR 212015Z 2120/2218 22010G20KT P6SM VCTS BKN090CB
     FM212100 02008KT P6SM SCT120
     FM220100 VRB08KT P6SM VCSH SCT070 BKN100
     FM220400 03007KT P6SM SCT110=

USA.gov is the U.S. government's official web portal to all federal, state and local government web resources and services.